Year,Month,Day,Hour,Minute,Value (Times are PST for temperature in C)
2012,04,06,00,00,2.00
2012,04,06,00,01,2.00
2012,04,06,00,02,1.90
2012,04,06,00,03,1.90
2012,04,06,00,04,1.90
2012,04,06,00,05,1.90
2012,04,06,00,06,1.80
2012,04,06,00,07,1.80
2012,04,06,00,08,1.80
2012,04,06,00,09,1.80
2012,04,06,00,10,1.80
2012,04,06,00,11,1.80
2012,04,06,00,12,1.80
2012,04,06,00,13,1.80
2012,04,06,00,14,1.80
2012,04,06,00,15,1.80
2012,04,06,00,16,1.80
2012,04,06,00,17,1.80
2012,04,06,00,18,1.80
2012,04,06,00,19,1.70
2012,04,06,00,20,1.70
2012,04,06,00,21,1.70
2012,04,06,00,22,1.70
2012,04,06,00,23,1.70
2012,04,06,00,24,1.70
2012,04,06,00,25,1.60
2012,04,06,00,26,1.60
2012,04,06,00,27,1.60
2012,04,06,00,28,1.50
2012,04,06,00,29,1.50
2012,04,06,00,30,1.40
2012,04,06,00,31,1.40
2012,04,06,00,32,1.30
2012,04,06,00,33,1.30
2012,04,06,00,34,1.30
2012,04,06,00,35,1.30
2012,04,06,00,36,1.30
2012,04,06,00,37,1.30
2012,04,06,00,38,1.30
2012,04,06,00,39,1.30
2012,04,06,00,40,1.30
2012,04,06,00,41,1.30
2012,04,06,00,42,1.30
2012,04,06,00,43,1.30
2012,04,06,00,44,1.30
2012,04,06,00,45,1.30
2012,04,06,00,46,1.30
2012,04,06,00,47,1.30
2012,04,06,00,48,1.20
2012,04,06,00,49,1.20
2012,04,06,00,50,1.20
2012,04,06,00,51,1.20
2012,04,06,00,52,1.20
2012,04,06,00,53,1.20
2012,04,06,00,54,1.20
2012,04,06,00,55,1.20
2012,04,06,00,56,1.20
2012,04,06,00,57,1.20
2012,04,06,00,58,1.20
2012,04,06,00,59,1.10
2012,04,06,01,00,1.10
2012,04,06,01,01,1.10
2012,04,06,01,02,1.10
2012,04,06,01,03,1.10
2012,04,06,01,04,1.10
2012,04,06,01,05,1.10
2012,04,06,01,06,1.10
2012,04,06,01,07,1.10
2012,04,06,01,08,1.10
2012,04,06,01,09,1.00
2012,04,06,01,10,1.00
2012,04,06,01,11,0.90
2012,04,06,01,12,0.90
2012,04,06,01,13,0.90
2012,04,06,01,14,0.90
2012,04,06,01,15,0.90
2012,04,06,01,16,0.90
2012,04,06,01,17,0.90
2012,04,06,01,18,0.90
2012,04,06,01,19,0.80
2012,04,06,01,20,0.80
2012,04,06,01,21,0.80
2012,04,06,01,22,0.80
2012,04,06,01,23,0.80
2012,04,06,01,24,0.80
2012,04,06,01,25,0.70
2012,04,06,01,26,0.70
2012,04,06,01,27,0.70
2012,04,06,01,28,0.70
2012,04,06,01,29,0.70
2012,04,06,01,30,0.60
2012,04,06,01,31,0.60
2012,04,06,01,32,0.60
2012,04,06,01,33,0.60
2012,04,06,01,34,0.60
2012,04,06,01,35,0.60
2012,04,06,01,36,0.60
2012,04,06,01,37,0.50
2012,04,06,01,38,0.50
2012,04,06,01,39,0.50
2012,04,06,01,40,0.50
2012,04,06,01,41,0.50
2012,04,06,01,42,0.50
2012,04,06,01,43,0.50
2012,04,06,01,44,0.50
2012,04,06,01,45,0.40
2012,04,06,01,46,0.40
2012,04,06,01,47,0.40
2012,04,06,01,48,0.40
2012,04,06,01,49,0.40
2012,04,06,01,50,0.40
2012,04,06,01,51,0.40
2012,04,06,01,52,0.40
2012,04,06,01,53,0.40
2012,04,06,01,54,0.40
2012,04,06,01,55,0.40
2012,04,06,01,56,0.40
2012,04,06,01,57,0.40
2012,04,06,01,58,0.30
2012,04,06,01,59,0.30
2012,04,06,02,00,0.30
2012,04,06,02,01,0.30
2012,04,06,02,02,0.30
2012,04,06,02,03,0.30
2012,04,06,02,04,0.30
2012,04,06,02,05,0.30
2012,04,06,02,06,0.30
2012,04,06,02,07,0.30
2012,04,06,02,08,0.30
2012,04,06,02,09,0.30
2012,04,06,02,10,0.30
2012,04,06,02,11,0.30
2012,04,06,02,12,0.30
2012,04,06,02,13,0.20
2012,04,06,02,14,0.20
2012,04,06,02,15,0.10
2012,04,06,02,16,0.10
2012,04,06,02,17,0.10
2012,04,06,02,18,0.10
2012,04,06,02,19,0.10
2012,04,06,02,20,0.10
2012,04,06,02,21,0.10
2012,04,06,02,22,0.10
2012,04,06,02,23,0.00
2012,04,06,02,24,0.00
2012,04,06,02,25,0.10
2012,04,06,02,26,0.10
2012,04,06,02,27,0.00
2012,04,06,02,28,0.00
2012,04,06,02,29,0.00
2012,04,06,02,30,0.00
2012,04,06,02,31,0.00
2012,04,06,02,32,0.00
2012,04,06,02,33,0.00
2012,04,06,02,34,0.00
2012,04,06,02,35,0.00
2012,04,06,02,36,0.00
2012,04,06,02,37,0.00
2012,04,06,02,38,-0.10
2012,04,06,02,39,-0.10
2012,04,06,02,40,-0.10
2012,04,06,02,41,-0.10
2012,04,06,02,42,-0.10
2012,04,06,02,43,-0.10
2012,04,06,02,44,-0.10
2012,04,06,02,45,-0.10
2012,04,06,02,46,-0.10
2012,04,06,02,47,-0.20
2012,04,06,02,48,-0.20
2012,04,06,02,49,-0.20
2012,04,06,02,50,-0.20
2012,04,06,02,51,-0.20
2012,04,06,02,52,-0.20
2012,04,06,02,53,-0.30
2012,04,06,02,54,-0.30
2012,04,06,02,55,-0.30
2012,04,06,02,56,-0.30
2012,04,06,02,57,-0.30
2012,04,06,02,58,-0.30
2012,04,06,02,59,-0.30
2012,04,06,03,00,-0.30
2012,04,06,03,01,-0.30
2012,04,06,03,02,-0.30
2012,04,06,03,03,-0.30
2012,04,06,03,04,-0.30
2012,04,06,03,05,-0.30
2012,04,06,03,06,-0.30
2012,04,06,03,07,-0.30
2012,04,06,03,08,-0.30
2012,04,06,03,09,-0.30
2012,04,06,03,10,-0.30
2012,04,06,03,11,-0.30
2012,04,06,03,12,-0.30
2012,04,06,03,13,-0.30
2012,04,06,03,14,-0.30
2012,04,06,03,15,-0.30
2012,04,06,03,16,-0.30
2012,04,06,03,17,-0.30
2012,04,06,03,18,-0.30
2012,04,06,03,19,-0.30
2012,04,06,03,20,-0.40
2012,04,06,03,21,-0.40
2012,04,06,03,22,-0.40
2012,04,06,03,23,-0.40
2012,04,06,03,24,-0.40
2012,04,06,03,25,-0.40
2012,04,06,03,26,-0.40
2012,04,06,03,27,-0.40
2012,04,06,03,28,-0.40
2012,04,06,03,29,-0.40
2012,04,06,03,30,-0.40
2012,04,06,03,31,-0.40
2012,04,06,03,32,-0.40
2012,04,06,03,33,-0.40
2012,04,06,03,34,-0.40
2012,04,06,03,35,-0.40
2012,04,06,03,36,-0.40
2012,04,06,03,37,-0.40
2012,04,06,03,38,-0.40
2012,04,06,03,39,-0.40
2012,04,06,03,40,-0.40
2012,04,06,03,41,-0.40
2012,04,06,03,42,-0.40
2012,04,06,03,43,-0.40
2012,04,06,03,44,-0.50
2012,04,06,03,45,-0.50
2012,04,06,03,46,-0.50
2012,04,06,03,47,-0.40
2012,04,06,03,48,-0.50
2012,04,06,03,49,-0.50
2012,04,06,03,50,-0.50
2012,04,06,03,51,-0.50
2012,04,06,03,52,-0.50
2012,04,06,03,53,-0.50
2012,04,06,03,54,-0.50
2012,04,06,03,55,-0.50
2012,04,06,03,56,-0.60
2012,04,06,03,57,-0.60
2012,04,06,03,58,-0.60
2012,04,06,03,59,-0.60
2012,04,06,04,00,-0.60
2012,04,06,04,01,-0.60
2012,04,06,04,02,-0.60
2012,04,06,04,03,-0.60
2012,04,06,04,04,-0.60
2012,04,06,04,05,-0.60
2012,04,06,04,06,-0.60
2012,04,06,04,07,-0.60
2012,04,06,04,08,-0.60
2012,04,06,04,09,-0.60
2012,04,06,04,10,-0.60
2012,04,06,04,11,-0.60
2012,04,06,04,12,-0.60
2012,04,06,04,13,-0.60
2012,04,06,04,14,-0.60
2012,04,06,04,15,-0.60
2012,04,06,04,16,-0.60
2012,04,06,04,17,-0.70
2012,04,06,04,18,-0.70
2012,04,06,04,19,-0.70
2012,04,06,04,20,-0.70
2012,04,06,04,21,-0.70
2012,04,06,04,22,-0.70
2012,04,06,04,23,-0.70
2012,04,06,04,24,-0.70
2012,04,06,04,25,-0.70
2012,04,06,04,26,-0.70
2012,04,06,04,27,-0.70
2012,04,06,04,28,-0.70
2012,04,06,04,29,-0.70
2012,04,06,04,30,-0.70
2012,04,06,04,31,-0.70
2012,04,06,04,32,-0.70
2012,04,06,04,33,-0.70
2012,04,06,04,34,-0.70
2012,04,06,04,35,-0.70
2012,04,06,04,36,-0.70
2012,04,06,04,37,-0.70
2012,04,06,04,38,-0.70
2012,04,06,04,39,-0.70
2012,04,06,04,40,-0.70
2012,04,06,04,41,-0.70
2012,04,06,04,42,-0.70
2012,04,06,04,43,-0.80
2012,04,06,04,44,-0.80
2012,04,06,04,45,-0.80
2012,04,06,04,46,-0.80
2012,04,06,04,47,-0.80
2012,04,06,04,48,-0.80
2012,04,06,04,49,-0.80
2012,04,06,04,50,-0.80
2012,04,06,04,51,-0.80
2012,04,06,04,52,-0.80
2012,04,06,04,53,-0.80
2012,04,06,04,54,-0.90
2012,04,06,04,55,-0.90
2012,04,06,04,56,-0.90
2012,04,06,04,57,-0.90
2012,04,06,04,58,-0.90
2012,04,06,04,59,-0.90
2012,04,06,05,00,-0.90
2012,04,06,05,01,-0.90
2012,04,06,05,02,-0.90
2012,04,06,05,03,-0.90
2012,04,06,05,04,-0.90
2012,04,06,05,05,-0.90
2012,04,06,05,06,-0.90
2012,04,06,05,07,-0.90
2012,04,06,05,08,-0.90
2012,04,06,05,09,-1.00
2012,04,06,05,10,-1.00
2012,04,06,05,11,-1.00
2012,04,06,05,12,-1.00
2012,04,06,05,13,-1.00
2012,04,06,05,14,-1.00
2012,04,06,05,15,-1.00
2012,04,06,05,16,-1.00
2012,04,06,05,17,-1.00
2012,04,06,05,18,-1.00
2012,04,06,05,19,-1.00
2012,04,06,05,20,-1.00
2012,04,06,05,21,-1.00
2012,04,06,05,22,-1.00
2012,04,06,05,23,-1.00
2012,04,06,05,24,-1.00
2012,04,06,05,25,-1.00
2012,04,06,05,26,-1.00
2012,04,06,05,27,-1.00
2012,04,06,05,28,-1.00
2012,04,06,05,29,-1.00
2012,04,06,05,30,-1.00
2012,04,06,05,31,-1.00
2012,04,06,05,32,-1.00
2012,04,06,05,33,-1.00
2012,04,06,05,34,-1.00
2012,04,06,05,35,-1.00
2012,04,06,05,36,-1.00
2012,04,06,05,37,-1.00
2012,04,06,05,38,-0.90
2012,04,06,05,39,-0.90
2012,04,06,05,40,-0.90
2012,04,06,05,41,-0.90
2012,04,06,05,42,-0.90
2012,04,06,05,43,-0.90
2012,04,06,05,44,-0.90
2012,04,06,05,45,-0.90
2012,04,06,05,46,-0.90
2012,04,06,05,47,-1.00
2012,04,06,05,48,-1.00
2012,04,06,05,49,-1.00
2012,04,06,05,50,-1.00
2012,04,06,05,51,-1.00
2012,04,06,05,52,-1.00
2012,04,06,05,53,-1.00
2012,04,06,05,54,-1.00
2012,04,06,05,55,-1.00
2012,04,06,05,56,-1.00
2012,04,06,05,57,-1.10
2012,04,06,05,58,-1.10
2012,04,06,05,59,-1.10
2012,04,06,06,00,-1.10
2012,04,06,06,01,-1.10
2012,04,06,06,02,-1.10
2012,04,06,06,03,-1.10
2012,04,06,06,04,-1.10
2012,04,06,06,05,-1.10
2012,04,06,06,06,-1.10
2012,04,06,06,07,-1.10
2012,04,06,06,08,-1.10
2012,04,06,06,09,-1.10
2012,04,06,06,10,-1.10
2012,04,06,06,11,-1.10
2012,04,06,06,12,-1.10
2012,04,06,06,13,-1.10
2012,04,06,06,14,-1.10
2012,04,06,06,15,-1.10
2012,04,06,06,16,-1.10
2012,04,06,06,17,-1.10
2012,04,06,06,18,-1.10
2012,04,06,06,19,-1.10
2012,04,06,06,20,-1.10
2012,04,06,06,21,-1.10
2012,04,06,06,22,-1.10
2012,04,06,06,23,-1.10
2012,04,06,06,24,-1.10
2012,04,06,06,25,-1.10
2012,04,06,06,26,-1.10
2012,04,06,06,27,-1.10
2012,04,06,06,28,-1.10
2012,04,06,06,29,-1.10
2012,04,06,06,30,-1.10
2012,04,06,06,31,-1.10
2012,04,06,06,32,-1.10
2012,04,06,06,33,-1.20
2012,04,06,06,34,-1.20
2012,04,06,06,35,-1.20
2012,04,06,06,36,-1.20
2012,04,06,06,37,-1.20
2012,04,06,06,38,-1.20
2012,04,06,06,39,-1.20
2012,04,06,06,40,-1.10
2012,04,06,06,41,-1.20
2012,04,06,06,42,-1.10
2012,04,06,06,43,-1.10
2012,04,06,06,44,-1.10
2012,04,06,06,45,-1.10
2012,04,06,06,46,-1.10
2012,04,06,06,47,-1.10
2012,04,06,06,48,-1.10
2012,04,06,06,49,-1.10
2012,04,06,06,50,-1.10
2012,04,06,06,51,-1.10
2012,04,06,06,52,-1.10
2012,04,06,06,53,-1.10
2012,04,06,06,54,-1.10
2012,04,06,06,55,-1.10
2012,04,06,06,56,-1.10
2012,04,06,06,57,-1.10
2012,04,06,06,58,-1.10
2012,04,06,06,59,-1.10
2012,04,06,07,00,-1.20
2012,04,06,07,01,-1.10
2012,04,06,07,02,-1.10
2012,04,06,07,03,-1.20
2012,04,06,07,04,-1.10
2012,04,06,07,05,-1.10
2012,04,06,07,06,-1.10
2012,04,06,07,07,-1.10
2012,04,06,07,08,-1.10
2012,04,06,07,09,-1.10
2012,04,06,07,10,-1.10
2012,04,06,07,11,-1.10
2012,04,06,07,12,-1.10
2012,04,06,07,13,-1.10
2012,04,06,07,14,-1.10
2012,04,06,07,15,-1.10
2012,04,06,07,16,-1.10
2012,04,06,07,17,-1.10
2012,04,06,07,18,-1.10
2012,04,06,07,19,-1.10
2012,04,06,07,20,-1.10
2012,04,06,07,21,-1.10
2012,04,06,07,22,-1.10
2012,04,06,07,23,-1.10
2012,04,06,07,24,-1.10
2012,04,06,07,25,-1.10
2012,04,06,07,26,-1.10
2012,04,06,07,27,-1.10
2012,04,06,07,28,-1.10
2012,04,06,07,29,-1.00
2012,04,06,07,30,-1.00
2012,04,06,07,31,-1.00
2012,04,06,07,32,-1.00
2012,04,06,07,33,-1.00
2012,04,06,07,34,-0.90
2012,04,06,07,35,-0.90
2012,04,06,07,36,-0.90
2012,04,06,07,37,-0.90
2012,04,06,07,38,-0.90
2012,04,06,07,39,-0.90
2012,04,06,07,40,-0.80
2012,04,06,07,41,-0.80
2012,04,06,07,42,-0.80
2012,04,06,07,43,-0.80
2012,04,06,07,44,-0.70
2012,04,06,07,45,-0.70
2012,04,06,07,46,-0.70
2012,04,06,07,47,-0.70
2012,04,06,07,48,-0.70
2012,04,06,07,49,-0.70
2012,04,06,07,50,-0.60
2012,04,06,07,51,-0.60
2012,04,06,07,52,-0.60
2012,04,06,07,53,-0.60
2012,04,06,07,54,-0.60
2012,04,06,07,55,-0.60
2012,04,06,07,56,-0.50
2012,04,06,07,57,-0.50
2012,04,06,07,58,-0.50
2012,04,06,07,59,-0.40
2012,04,06,08,00,-0.40
2012,04,06,08,01,-0.40
2012,04,06,08,02,-0.40
2012,04,06,08,03,-0.30
2012,04,06,08,04,-0.30
2012,04,06,08,05,-0.30
2012,04,06,08,06,-0.30
2012,04,06,08,07,-0.20
2012,04,06,08,08,-0.20
2012,04,06,08,09,-0.20
2012,04,06,08,10,-0.10
2012,04,06,08,11,-0.10
2012,04,06,08,12,-0.10
2012,04,06,08,13,0.00
2012,04,06,08,14,0.00
2012,04,06,08,15,0.10
2012,04,06,08,16,0.20
2012,04,06,08,17,0.20
2012,04,06,08,18,0.30
2012,04,06,08,19,0.40
2012,04,06,08,20,0.50
2012,04,06,08,21,0.50
2012,04,06,08,22,0.60
2012,04,06,08,23,0.70
2012,04,06,08,24,0.80
2012,04,06,08,25,0.80
2012,04,06,08,26,0.90
2012,04,06,08,27,1.00
2012,04,06,08,28,1.00
2012,04,06,08,29,1.10
2012,04,06,08,30,1.10
2012,04,06,08,31,1.20
2012,04,06,08,32,1.30
2012,04,06,08,33,1.30
2012,04,06,08,34,1.30
2012,04,06,08,35,1.30
2012,04,06,08,36,1.40
2012,04,06,08,37,1.50
2012,04,06,08,38,1.50
2012,04,06,08,39,1.70
2012,04,06,08,40,1.80
2012,04,06,08,41,1.90
2012,04,06,08,42,2.00
2012,04,06,08,43,2.20
2012,04,06,08,44,2.30
2012,04,06,08,45,2.40
2012,04,06,08,46,2.60
2012,04,06,08,47,2.70
2012,04,06,08,48,2.80
2012,04,06,08,49,2.90
2012,04,06,08,50,3.00
2012,04,06,08,51,3.00
2012,04,06,08,52,3.10
2012,04,06,08,53,3.10
2012,04,06,08,54,3.10
2012,04,06,08,55,3.20
2012,04,06,08,56,3.20
2012,04,06,08,57,3.30
2012,04,06,08,58,3.30
2012,04,06,08,59,3.40
2012,04,06,09,00,3.50
2012,04,06,09,01,3.60
2012,04,06,09,02,3.70
2012,04,06,09,03,3.80
2012,04,06,09,04,3.90
2012,04,06,09,05,4.10
2012,04,06,09,06,4.20
2012,04,06,09,07,4.30
2012,04,06,09,08,4.40
2012,04,06,09,09,4.50
2012,04,06,09,10,4.60
2012,04,06,09,11,4.70
2012,04,06,09,12,4.70
2012,04,06,09,13,4.80
2012,04,06,09,14,4.90
2012,04,06,09,15,5.00
2012,04,06,09,16,5.10
2012,04,06,09,17,5.10
2012,04,06,09,18,5.20
2012,04,06,09,19,5.30
2012,04,06,09,20,5.40
2012,04,06,09,21,5.40
2012,04,06,09,22,5.50
2012,04,06,09,23,5.60
2012,04,06,09,24,5.70
2012,04,06,09,25,5.70
2012,04,06,09,26,5.80
2012,04,06,09,27,5.80
2012,04,06,09,28,5.80
2012,04,06,09,29,5.80
2012,04,06,09,30,5.90
2012,04,06,09,31,5.90
2012,04,06,09,32,6.00
2012,04,06,09,33,6.10
2012,04,06,09,34,6.20
2012,04,06,09,35,6.30
2012,04,06,09,36,6.40
2012,04,06,09,37,6.40
2012,04,06,09,38,6.50
2012,04,06,09,39,6.50
2012,04,06,09,40,6.60
2012,04,06,09,41,6.60
2012,04,06,09,42,6.60
2012,04,06,09,43,6.60
2012,04,06,09,44,6.60
2012,04,06,09,45,6.60
2012,04,06,09,46,6.60
2012,04,06,09,47,6.60
2012,04,06,09,48,6.60
2012,04,06,09,49,6.60
2012,04,06,09,50,6.60
2012,04,06,09,51,6.50
2012,04,06,09,52,6.50
2012,04,06,09,53,6.50
2012,04,06,09,54,6.50
2012,04,06,09,55,6.50
2012,04,06,09,56,6.40
2012,04,06,09,57,6.50
2012,04,06,09,58,6.50
2012,04,06,09,59,6.50
2012,04,06,10,00,6.50
2012,04,06,10,01,6.50
2012,04,06,10,02,6.50
2012,04,06,10,03,6.50
2012,04,06,10,04,6.60
2012,04,06,10,05,6.60
2012,04,06,10,06,6.60
2012,04,06,10,07,6.70
2012,04,06,10,08,6.70
2012,04,06,10,09,6.80
2012,04,06,10,10,6.80
2012,04,06,10,11,6.90
2012,04,06,10,12,7.00
2012,04,06,10,13,7.00
2012,04,06,10,14,7.10
2012,04,06,10,15,7.20
2012,04,06,10,16,7.20
2012,04,06,10,17,7.20
2012,04,06,10,18,7.20
2012,04,06,10,19,7.30
2012,04,06,10,20,7.30
2012,04,06,10,21,7.30
2012,04,06,10,22,7.30
2012,04,06,10,23,7.30
2012,04,06,10,24,7.30
2012,04,06,10,25,7.30
2012,04,06,10,26,7.40
2012,04,06,10,27,7.40
2012,04,06,10,28,7.40
2012,04,06,10,29,7.40
2012,04,06,10,30,7.40
2012,04,06,10,31,7.40
2012,04,06,10,32,7.40
2012,04,06,10,33,7.40
2012,04,06,10,34,7.30
2012,04,06,10,35,7.20
2012,04,06,10,36,7.20
2012,04,06,10,37,7.20
2012,04,06,10,38,7.20
2012,04,06,10,39,7.10
2012,04,06,10,40,7.10
2012,04,06,10,41,7.10
2012,04,06,10,42,7.00
2012,04,06,10,43,6.90
2012,04,06,10,44,6.90
2012,04,06,10,45,6.90
2012,04,06,10,46,6.80
2012,04,06,10,47,6.80
2012,04,06,10,48,6.70
2012,04,06,10,49,6.60
2012,04,06,10,50,6.50
2012,04,06,10,51,6.40
2012,04,06,10,52,6.40
2012,04,06,10,53,6.40
2012,04,06,10,54,6.30
2012,04,06,10,55,6.30
2012,04,06,10,56,6.30
2012,04,06,10,57,6.30
2012,04,06,10,58,6.30
2012,04,06,10,59,6.30
2012,04,06,11,00,6.30
2012,04,06,11,01,6.30
2012,04,06,11,02,6.30
2012,04,06,11,03,6.30
2012,04,06,11,04,6.30
2012,04,06,11,05,6.30
2012,04,06,11,06,6.30
2012,04,06,11,07,6.30
2012,04,06,11,08,6.30
2012,04,06,11,09,6.40
2012,04,06,11,10,6.40
2012,04,06,11,11,6.40
2012,04,06,11,12,6.50
2012,04,06,11,13,6.50
2012,04,06,11,14,6.50
2012,04,06,11,15,6.50
2012,04,06,11,16,6.50
2012,04,06,11,17,6.50
2012,04,06,11,18,6.60
2012,04,06,11,19,6.60
2012,04,06,11,20,6.60
2012,04,06,11,21,6.60
2012,04,06,11,22,6.60
2012,04,06,11,23,6.60
2012,04,06,11,24,6.70
2012,04,06,11,25,6.70
2012,04,06,11,26,6.70
2012,04,06,11,27,6.70
2012,04,06,11,28,6.70
2012,04,06,11,29,6.70
2012,04,06,11,30,6.70
2012,04,06,11,31,6.70
2012,04,06,11,32,6.70
2012,04,06,11,33,6.70
2012,04,06,11,34,6.70
2012,04,06,11,35,6.80
2012,04,06,11,36,6.80
2012,04,06,11,37,6.80
2012,04,06,11,38,6.80
2012,04,06,11,39,6.80
2012,04,06,11,40,6.80
2012,04,06,11,41,6.80
2012,04,06,11,42,6.80
2012,04,06,11,43,6.90
2012,04,06,11,44,6.90
2012,04,06,11,45,6.90
2012,04,06,11,46,6.90
2012,04,06,11,47,6.90
2012,04,06,11,48,6.90
2012,04,06,11,49,7.00
2012,04,06,11,50,7.00
2012,04,06,11,51,7.10
2012,04,06,11,52,7.10
2012,04,06,11,53,7.10
2012,04,06,11,54,7.10
2012,04,06,11,55,7.10
2012,04,06,11,56,7.20
2012,04,06,11,57,7.20
2012,04,06,11,58,7.20
2012,04,06,11,59,7.20
2012,04,06,12,00,7.20
2012,04,06,12,01,7.20
2012,04,06,12,02,7.20
2012,04,06,12,03,7.20
2012,04,06,12,04,7.20
2012,04,06,12,05,7.30
2012,04,06,12,06,7.30
2012,04,06,12,07,7.30
2012,04,06,12,08,7.40
2012,04,06,12,09,7.40
2012,04,06,12,10,7.40
2012,04,06,12,11,7.40
2012,04,06,12,12,7.40
2012,04,06,12,13,7.50
2012,04,06,12,14,7.50
2012,04,06,12,15,7.50
2012,04,06,12,16,7.50
2012,04,06,12,17,7.50
2012,04,06,12,18,7.50
2012,04,06,12,19,7.50
2012,04,06,12,20,7.50
2012,04,06,12,21,7.60
2012,04,06,12,22,7.60
2012,04,06,12,23,7.60
2012,04,06,12,24,7.60
2012,04,06,12,25,7.60
2012,04,06,12,26,7.60
2012,04,06,12,27,7.60
2012,04,06,12,28,7.60
2012,04,06,12,29,7.60
2012,04,06,12,30,7.50
2012,04,06,12,31,7.50
2012,04,06,12,32,7.50
2012,04,06,12,33,7.50
2012,04,06,12,34,7.50
2012,04,06,12,35,7.50
2012,04,06,12,36,7.50
2012,04,06,12,37,7.50
2012,04,06,12,38,7.40
2012,04,06,12,39,7.40
2012,04,06,12,40,7.40
2012,04,06,12,41,7.30
2012,04,06,12,42,7.30
2012,04,06,12,43,7.20
2012,04,06,12,44,7.20
2012,04,06,12,45,7.20
2012,04,06,12,46,7.20
2012,04,06,12,47,7.10
2012,04,06,12,48,7.10
2012,04,06,12,49,7.00
2012,04,06,12,50,7.00
2012,04,06,12,51,7.00
2012,04,06,12,52,6.90
2012,04,06,12,53,6.90
2012,04,06,12,54,6.80
2012,04,06,12,55,6.70
2012,04,06,12,56,6.70
2012,04,06,12,57,6.60
2012,04,06,12,58,6.50
2012,04,06,12,59,6.40
2012,04,06,13,00,6.40
2012,04,06,13,01,6.30
2012,04,06,13,02,6.20
2012,04,06,13,03,6.20
2012,04,06,13,04,6.10
2012,04,06,13,05,6.00
2012,04,06,13,06,6.00
2012,04,06,13,07,6.00
2012,04,06,13,08,5.90
2012,04,06,13,09,5.90
2012,04,06,13,10,5.90
2012,04,06,13,11,5.80
2012,04,06,13,12,5.80
2012,04,06,13,13,5.80
2012,04,06,13,14,5.70
2012,04,06,13,15,5.70
2012,04,06,13,16,5.70
2012,04,06,13,17,5.70
2012,04,06,13,18,5.70
2012,04,06,13,19,5.70
2012,04,06,13,20,5.70
2012,04,06,13,21,5.70
2012,04,06,13,22,5.80
2012,04,06,13,23,5.90
2012,04,06,13,24,6.00
2012,04,06,13,25,6.10
2012,04,06,13,26,6.20
2012,04,06,13,27,6.30
2012,04,06,13,28,6.50
2012,04,06,13,29,6.60
2012,04,06,13,30,6.80
2012,04,06,13,31,6.90
2012,04,06,13,32,7.10
2012,04,06,13,33,7.20
2012,04,06,13,34,7.20
2012,04,06,13,35,7.30
2012,04,06,13,36,7.40
2012,04,06,13,37,7.40
2012,04,06,13,38,7.50
2012,04,06,13,39,7.60
2012,04,06,13,40,7.60
2012,04,06,13,41,7.70
2012,04,06,13,42,7.70
2012,04,06,13,43,7.70
2012,04,06,13,44,7.80
2012,04,06,13,45,7.80
2012,04,06,13,46,7.80
2012,04,06,13,47,7.90
2012,04,06,13,48,7.90
2012,04,06,13,49,8.00
2012,04,06,13,50,8.00
2012,04,06,13,51,8.10
2012,04,06,13,52,8.10
2012,04,06,13,53,8.20
2012,04,06,13,54,8.20
2012,04,06,13,55,8.30
2012,04,06,13,56,8.30
2012,04,06,13,57,8.50
2012,04,06,13,58,8.60
2012,04,06,13,59,8.80
2012,04,06,14,00,8.90
2012,04,06,14,01,9.00
2012,04,06,14,02,9.10
2012,04,06,14,03,9.10
2012,04,06,14,04,9.20
2012,04,06,14,05,9.20
2012,04,06,14,06,9.30
2012,04,06,14,07,9.30
2012,04,06,14,08,9.40
2012,04,06,14,09,9.50
2012,04,06,14,10,9.50
2012,04,06,14,11,9.50
2012,04,06,14,12,9.40
2012,04,06,14,13,9.40
2012,04,06,14,14,9.30
2012,04,06,14,15,9.30
2012,04,06,14,16,9.30
2012,04,06,14,17,9.30
2012,04,06,14,18,9.40
2012,04,06,14,19,9.40
2012,04,06,14,20,9.50
2012,04,06,14,21,9.50
2012,04,06,14,22,9.40
2012,04,06,14,23,9.40
2012,04,06,14,24,9.40
2012,04,06,14,25,9.40
2012,04,06,14,26,9.40
2012,04,06,14,27,9.50
2012,04,06,14,28,9.50
2012,04,06,14,29,9.60
2012,04,06,14,30,9.60
2012,04,06,14,31,9.60
2012,04,06,14,32,9.60
2012,04,06,14,33,9.70
2012,04,06,14,34,9.70
2012,04,06,14,35,9.70
2012,04,06,14,36,9.70
2012,04,06,14,37,9.70
2012,04,06,14,38,9.70
2012,04,06,14,39,9.80
2012,04,06,14,40,9.80
2012,04,06,14,41,9.80
2012,04,06,14,42,9.80
2012,04,06,14,43,9.90
2012,04,06,14,44,9.90
2012,04,06,14,45,10.00
2012,04,06,14,46,10.10
2012,04,06,14,47,10.10
2012,04,06,14,48,10.00
2012,04,06,14,49,9.90
2012,04,06,14,50,9.80
2012,04,06,14,51,9.70
2012,04,06,14,52,9.50
2012,04,06,14,53,9.40
2012,04,06,14,54,9.30
2012,04,06,14,55,9.30
2012,04,06,14,56,9.30
2012,04,06,14,57,9.30
2012,04,06,14,58,9.30
2012,04,06,14,59,9.30
2012,04,06,15,00,9.30
2012,04,06,15,01,9.30
2012,04,06,15,02,9.30
2012,04,06,15,03,9.30
2012,04,06,15,04,9.30
2012,04,06,15,05,9.40
2012,04,06,15,06,9.50
2012,04,06,15,07,9.60
2012,04,06,15,08,9.60
2012,04,06,15,09,9.70
2012,04,06,15,10,9.70
2012,04,06,15,11,9.80
2012,04,06,15,12,9.80
2012,04,06,15,13,9.90
2012,04,06,15,14,9.90
2012,04,06,15,15,9.90
2012,04,06,15,16,9.80
2012,04,06,15,17,9.70
2012,04,06,15,18,9.70
2012,04,06,15,19,9.60
2012,04,06,15,20,9.50
2012,04,06,15,21,9.40
2012,04,06,15,22,9.40
2012,04,06,15,23,9.30
2012,04,06,15,24,9.30
2012,04,06,15,25,9.20
2012,04,06,15,26,9.20
2012,04,06,15,27,9.20
2012,04,06,15,28,9.20
2012,04,06,15,29,9.10
2012,04,06,15,30,9.10
2012,04,06,15,31,9.00
2012,04,06,15,32,9.00
2012,04,06,15,33,8.90
2012,04,06,15,34,8.90
2012,04,06,15,35,8.80
2012,04,06,15,36,8.80
2012,04,06,15,37,8.80
2012,04,06,15,38,8.70
2012,04,06,15,39,8.70
2012,04,06,15,40,8.60
2012,04,06,15,41,8.60
2012,04,06,15,42,8.60
2012,04,06,15,43,8.50
2012,04,06,15,44,8.50
2012,04,06,15,45,8.50
2012,04,06,15,46,8.50
2012,04,06,15,47,8.50
2012,04,06,15,48,8.50
2012,04,06,15,49,8.50
2012,04,06,15,50,8.50
2012,04,06,15,51,8.50
2012,04,06,15,52,8.40
2012,04,06,15,53,8.40
2012,04,06,15,54,8.40
2012,04,06,15,55,8.40
2012,04,06,15,56,8.40
2012,04,06,15,57,8.40
2012,04,06,15,58,8.40
2012,04,06,15,59,8.40
2012,04,06,16,00,8.40
2012,04,06,16,01,8.30
2012,04,06,16,02,8.30
2012,04,06,16,03,8.30
2012,04,06,16,04,8.30
2012,04,06,16,05,8.30
2012,04,06,16,06,8.30
2012,04,06,16,07,8.30
2012,04,06,16,08,8.30
2012,04,06,16,09,8.30
2012,04,06,16,10,8.30
2012,04,06,16,11,8.30
2012,04,06,16,12,8.20
2012,04,06,16,13,8.20
2012,04,06,16,14,8.20
2012,04,06,16,15,8.20
2012,04,06,16,16,8.20
2012,04,06,16,17,8.20
2012,04,06,16,18,8.20
2012,04,06,16,19,8.10
2012,04,06,16,20,8.10
2012,04,06,16,21,8.10
2012,04,06,16,22,8.10
2012,04,06,16,23,8.10
2012,04,06,16,24,8.10
2012,04,06,16,25,8.10
2012,04,06,16,26,8.10
2012,04,06,16,27,8.10
2012,04,06,16,28,8.10
2012,04,06,16,29,8.10
2012,04,06,16,30,8.10
2012,04,06,16,31,8.10
2012,04,06,16,32,8.10
2012,04,06,16,33,8.10
2012,04,06,16,34,8.10
2012,04,06,16,35,8.00
2012,04,06,16,36,8.00
2012,04,06,16,37,8.00
2012,04,06,16,38,8.00
2012,04,06,16,39,7.90
2012,04,06,16,40,7.90
2012,04,06,16,41,7.90
2012,04,06,16,42,7.90
2012,04,06,16,43,7.90
2012,04,06,16,44,7.90
2012,04,06,16,45,7.80
2012,04,06,16,46,7.80
2012,04,06,16,47,7.80
2012,04,06,16,48,7.70
2012,04,06,16,49,7.70
2012,04,06,16,50,7.70
2012,04,06,16,51,7.70
2012,04,06,16,52,7.70
2012,04,06,16,53,7.70
2012,04,06,16,54,7.60
2012,04,06,16,55,7.60
2012,04,06,16,56,7.60
2012,04,06,16,57,7.60
2012,04,06,16,58,7.50
2012,04,06,16,59,7.50
2012,04,06,17,00,7.40
2012,04,06,17,01,7.40
2012,04,06,17,02,7.40
2012,04,06,17,03,7.40
2012,04,06,17,04,7.40
2012,04,06,17,05,7.40
2012,04,06,17,06,7.50
2012,04,06,17,07,7.50
2012,04,06,17,08,7.60
2012,04,06,17,09,7.70
2012,04,06,17,10,7.70
2012,04,06,17,11,7.80
2012,04,06,17,12,7.90
2012,04,06,17,13,8.00
2012,04,06,17,14,8.10
2012,04,06,17,15,8.20
2012,04,06,17,16,8.30
2012,04,06,17,17,8.40
2012,04,06,17,18,8.50
2012,04,06,17,19,8.70
2012,04,06,17,20,8.80
2012,04,06,17,21,8.90
2012,04,06,17,22,9.00
2012,04,06,17,23,9.10
2012,04,06,17,24,9.20
2012,04,06,17,25,9.20
2012,04,06,17,26,9.30
2012,04,06,17,27,9.30
2012,04,06,17,28,9.40
2012,04,06,17,29,9.40
2012,04,06,17,30,9.40
2012,04,06,17,31,9.30
2012,04,06,17,32,9.30
2012,04,06,17,33,9.30
2012,04,06,17,34,9.30
2012,04,06,17,35,9.30
2012,04,06,17,36,9.40
2012,04,06,17,37,9.40
2012,04,06,17,38,9.50
2012,04,06,17,39,9.60
2012,04,06,17,40,9.60
2012,04,06,17,41,9.60
2012,04,06,17,42,9.60
2012,04,06,17,43,9.60
2012,04,06,17,44,9.60
2012,04,06,17,45,9.60
2012,04,06,17,46,9.60
2012,04,06,17,47,9.60
2012,04,06,17,48,9.60
2012,04,06,17,49,9.60
2012,04,06,17,50,9.60
2012,04,06,17,51,9.60